QPF
0.00 0.00 0.00 0.00 0.01 0.01 0.01 0.02 0.02 0.02 0.03 0.04 0.03 0.02 0.02 0.02 0.01 0.01 0.01 0.01 0.02 0.01 0.02 0.01 0.01 0.01 0.01 0.01 0.01 0.01 0.01 0.00 0.00 0.00 0.00 0.00 0.00 0.01 0.00 0.01 0.01 0.01 0.02
0.01 0.00 0.00 0.00 0.01 0.01 0.01 0.01 0.01 0.01 0.01 0.02 0.02 0.02 0.03 0.03 0.05 0.03 0.01 0.01 0.01 0.01 0.01 0.01 0.01 0.01 0.01 0.01 0.01 0.01 0.01 0.00 0.00 0.00 0.01 0.01 0.01 0.00 0.00 0.00 0.01 0.01 0.02
0.00 0.00 0.00 0.00 0.01 0.00 0.00 0.00 0.01 0.01 0.02 0.01 0.01 0.00 0.01 0.01 0.03 0.04 0.03 0.02 0.01 0.01 0.01 0.02 0.01 0.01 0.02 0.02 0.02 0.01 0.01 0.01 0.00 0.00 0.01 0.02 0.02 0.01 0.01 0.01 0.01 0.01 0.02
0.00 0.01 0.00 0.00 0.01 0.00 0.00 0.01 0.01 0.01 0.01 0.02 0.01 0.00 0.00 0.01 0.01 0.03 0.03 0.04 0.03 0.01 0.01 0.01 0.01 0.01 0.02 0.02 0.02 0.02 0.02 0.01 0.01 0.01 0.00 0.01 0.01 0.02 0.01 0.01 0.01 0.01 0.02
0.00 0.01 0.00 0.01 0.01 0.00 0.00 0.01 0.01 0.00 0.00 0.00 0.00 0.00 0.01 0.01 0.01 0.01 0.01 0.02 0.02 0.02 0.01 0.01 0.00 0.00 0.01 0.01 0.02 0.02 0.02 0.02 0.02 0.01 0.01 0.00 0.01 0.01 0.01 0.01 0.01 0.01 0.02
0.00 0.00 0.00 0.01 0.01 0.00 0.00 0.01 0.00 0.00 0.00 0.00 0.00 0.00 0.00 0.01 0.01 0.01 0.01 0.01 0.01 0.01 0.01 0.01 0.01 0.01 0.01 0.01 0.01 0.02 0.02 0.02 0.02 0.02 0.01 0.01 0.01 0.01 0.02 0.01 0.01 0.01 0.02
0.00 0.00 0.00 0.00 0.00 0.00 0.00 0.01 0.01 0.01 0.00 0.00 0.01 0.01 0.01 0.01 0.01 0.01 0.01 0.01 0.01 0.00 0.00 0.00 0.01 0.01 0.01 0.02 0.02 0.02 0.02 0.02 0.02 0.02 0.02 0.02 0.01 0.01 0.01 0.01 0.01 0.01 0.01
0.00 0.00 0.00 0.00 0.00 0.00 0.01 0.01 0.01 0.01 0.00 0.00 0.01 0.01 0.01 0.01 0.01 0.01 0.01 0.01 0.01 0.01 0.00 0.00 0.00 0.00 0.01 0.01 0.02 0.03 0.03 0.03 0.02 0.02 0.01 0.01 0.01 0.01 0.01 0.01 0.01 0.01 0.01
0.00 0.00 0.01 0.00 0.00 0.00 0.01 0.01 0.01 0.01 0.01 0.00 0.00 0.01 0.01 0.01 0.01 0.02 0.02 0.01 0.01 0.01 0.01 0.00 0.00 0.01 0.01 0.01 0.01 0.01 0.02 0.03 0.03 0.03 0.02 0.02 0.01 0.01 0.00 0.00 0.01 0.01 0.01
0.01 0.01 0.01 0.01 0.00 0.00 0.00 0.01 0.01 0.01 0.01 0.01 0.00 0.00 0.01 0.01 0.01 0.01 0.02 0.02 0.02 0.02 0.01 0.01 0.01 0.01 0.01 0.01 0.01 0.01 0.01 0.02 0.02 0.02 0.02 0.02 0.02 0.01 0.01 0.01 0.01 0.01 0.02
0.01 0.01 0.00 0.00 0.00 0.00 0.01 0.01 0.01 0.01 0.01 0.01 0.00 0.01 0.01 0.01 0.01 0.02 0.03 0.02 0.02 0.02 0.02 0.01 0.01 0.01 0.01 0.01 0.01 0.01 0.01 0.01 0.02 0.02 0.02 0.02 0.02 0.02 0.01 0.01 0.02 0.02 0.02
0.00 0.01 0.01 0.01 0.01 0.01 0.01 0.02 0.02 0.01 0.02 0.01 0.01 0.01 0.01 0.02 0.02 0.02 0.02 0.02 0.02 0.02 0.02 0.01 0.01 0.00 0.01 0.01 0.01 0.01 0.01 0.02 0.02 0.02 0.02 0.03 0.02 0.02 0.01 0.01 0.02 0.03 0.03
0.01 0.01 0.01 0.01 0.01 0.01 0.01 0.02 0.02 0.02 0.02 0.02 0.01 0.01 0.01 0.01 0.01 0.02 0.03 0.03 0.03 0.03 0.02 0.01 0.01 0.01 0.01 0.01 0.01 0.01 0.01 0.01 0.01 0.01 0.01 0.02 0.02 0.02 0.02 0.02 0.02 0.03 0.03
0.01 0.00 0.00 0.00 0.00 0.00 0.01 0.01 0.01 0.01 0.02 0.02 0.02 0.01 0.01 0.01 0.01 0.01 0.02 0.03 0.03 0.02 0.02 0.02 0.01 0.01 0.01 0.02 0.02 0.01 0.01 0.01 0.01 0.01 0.02 0.02 0.02 0.03 0.04 0.04 0.02 0.02 0.02
0.01 0.01 0.00 0.00 0.00 0.00 0.00 0.00 0.01 0.01 0.01 0.02 0.02 0.02 0.01 0.01 0.01 0.01 0.01 0.02 0.02 0.02 0.02 0.02 0.02 0.02 0.01 0.02 0.02 0.03 0.02 0.01 0.01 0.01 0.01 0.02 0.05 0.07 0.08 0.05 0.02 0.01 0.01
0.01 0.00 0.00 0.00 0.00 0.00 0.00 0.00 0.00 0.00 0.00 0.00 0.01 0.01 0.01 0.01 0.01 0.01 0.01 0.01 0.01 0.02 0.02 0.01 0.01 0.01 0.02 0.02 0.03 0.02 0.01 0.02 0.01 0.01 0.02 0.04 0.06 0.08 0.06 0.04 0.02 0.02 0.02
0.01 0.00 0.00 0.00 0.00 0.00 0.00 0.00 0.00 0.00 0.00 0.00 0.00 0.00 0.01 0.01 0.01 0.01 0.01 0.01 0.01 0.01 0.01 0.01 0.01 0.01 0.02 0.03 0.02 0.02 0.01 0.01 0.01 0.02 0.03 0.04 0.05 0.06 0.04 0.03 0.02 0.02 0.02
0.01 0.00 0.00 0.00 0.00 0.00 0.00 0.00 0.00 0.00 0.00 0.00 0.00 0.00 0.01 0.01 0.01 0.01 0.01 0.01 0.01 0.01 0.01 0.01 0.02 0.02 0.03 0.03 0.02 0.02 0.01 0.01 0.01 0.02 0.03 0.03 0.03 0.04 0.04 0.02 0.02 0.02 0.02
0.00 0.00 0.00 0.00 0.00 0.00 0.00 0.00 0.00 0.00 0.00 0.00 0.01 0.01 0.01 0.01 0.01 0.01 0.01 0.01 0.01 0.01 0.01 0.01 0.02 0.02 0.03 0.03 0.03 0.02 0.01 0.01 0.01 0.01 0.01 0.02 0.02 0.03 0.03 0.02 0.01 0.01 0.01
0.00 0.00 0.00 0.00 0.00 0.00 0.00 0.00 0.00 0.00 0.00 0.01 0.01 0.01 0.01 0.01 0.01 0.01 0.01 0.01 0.01 0.01 0.01 0.02 0.02 0.02 0.02 0.03 0.03 0.03 0.02 0.02 0.01 0.01 0.01 0.01 0.02 0.02 0.02 0.01 0.01 0.01 0.02
0.00 0.00 0.00 0.00 0.00 0.01 0.01 0.01 0.01 0.01 0.01 0.01 0.01 0.01 0.01 0.01 0.01 0.02 0.02 0.01 0.01 0.01 0.02 0.02 0.02 0.02 0.02 0.03 0.04 0.04 0.03 0.02 0.02 0.01 0.01 0.01 0.02 0.02 0.01 0.01 0.01 0.02 0.03
0.00 0.00 0.00 0.00 0.00 0.01 0.01 0.01 0.01 0.01 0.01 0.01 0.01 0.01 0.01 0.01 0.01 0.02 0.03 0.02 0.02 0.02 0.02 0.02 0.03 0.03 0.03 0.03 0.04 0.05 0.06 0.04 0.02 0.01 0.01 0.01 0.02 0.01 0.01 0.01 0.01 0.01 0.02
0.00 0.00 0.00 0.00 0.00 0.00 0.01 0.01 0.01 0.01 0.01 0.01 0.01 0.01 0.01 0.02 0.02 0.02 0.03 0.03 0.02 0.02 0.02 0.02 0.03 0.03 0.03 0.04 0.04 0.04 0.05 0.07 0.04 0.03 0.02 0.02 0.02 0.02 0.01 0.01 0.01 0.01 0.01
0.00 0.00 0.00 0.00 0.00 0.00 0.01 0.01 0.01 0.01 0.02 0.02 0.01 0.01 0.01 0.02 0.02 0.02 0.03 0.03 0.03 0.03 0.03 0.03 0.02 0.02 0.03 0.03 0.03 0.04 0.04 0.04 0.04 0.04 0.04 0.03 0.02 0.02 0.02 0.02 0.01 0.01 0.01
0.00 0.00 0.00 0.00 0.00 0.00 0.00 0.01 0.02 0.02 0.02 0.02 0.02 0.01 0.01 0.02 0.02 0.02 0.03 0.03 0.04 0.04 0.04 0.03 0.03 0.02 0.02 0.03 0.03 0.03 0.04 0.03 0.03 0.03 0.04 0.04 0.04 0.04 0.03 0.02 0.02 0.01 0.01
0.01 0.01 0.01 0.00 0.00 0.00 0.00 0.01 0.02 0.04 0.03 0.03 0.02 0.01 0.01 0.01 0.02 0.02 0.02 0.03 0.03 0.04 0.04 0.03 0.02 0.02 0.02 0.02 0.02 0.02 0.02 0.02 0.02 0.02 0.02 0.03 0.03 0.04 0.04 0.03 0.03 0.02 0.02
MSLP
1019.54 1019.43 1019.30 1019.12 1018.85 1018.47 1018.00 1017.44 1016.85 1016.25 1015.69 1015.19 1014.75 1014.39 1014.09 1013.84 1013.62 1013.44 1013.28 1013.16 1013.08 1013.05 1013.09 1013.17 1013.31 1013.48 1013.66 1013.82 1013.95 1014.02 1014.04 1014.00 1013.91 1013.80 1013.68 1013.57 1013.48 1013.41 1013.36 1013.32 1013.29 1013.25 1013.19
1020.51 1020.41 1020.29 1020.10 1019.81 1019.41 1018.89 1018.29 1017.65 1016.99 1016.37 1015.80 1015.29 1014.86 1014.48 1014.14 1013.84 1013.56 1013.32 1013.11 1012.96 1012.87 1012.86 1012.93 1013.07 1013.26 1013.47 1013.68 1013.85 1013.98 1014.04 1014.05 1014.00 1013.93 1013.84 1013.75 1013.68 1013.62 1013.60 1013.58 1013.58 1013.57 1013.55
1021.35 1021.26 1021.13 1020.94 1020.63 1020.21 1019.68 1019.07 1018.41 1017.73 1017.08 1016.47 1015.92 1015.42 1014.96 1014.53 1014.13 1013.75 1013.39 1013.08 1012.84 1012.67 1012.60 1012.64 1012.76 1012.95 1013.18 1013.41 1013.63 1013.81 1013.92 1013.98 1013.99 1013.96 1013.91 1013.85 1013.80 1013.77 1013.76 1013.77 1013.79 1013.81 1013.82
1022.06 1021.96 1021.82 1021.61 1021.30 1020.88 1020.35 1019.75 1019.10 1018.44 1017.78 1017.16 1016.57 1016.02 1015.49 1014.97 1014.46 1013.97 1013.50 1013.07 1012.72 1012.47 1012.33 1012.30 1012.38 1012.55 1012.78 1013.04 1013.28 1013.50 1013.67 1013.78 1013.84 1013.87 1013.86 1013.85 1013.83 1013.82 1013.83 1013.86 1013.89 1013.93 1013.97
1022.64 1022.52 1022.36 1022.14 1021.82 1021.41 1020.91 1020.33 1019.72 1019.08 1018.44 1017.82 1017.21 1016.62 1016.02 1015.41 1014.80 1014.19 1013.61 1013.07 1012.61 1012.26 1012.04 1011.94 1011.97 1012.10 1012.31 1012.56 1012.82 1013.07 1013.28 1013.44 1013.56 1013.64 1013.68 1013.72 1013.74 1013.76 1013.78 1013.82 1013.87 1013.92 1013.98
1023.10 1022.97 1022.80 1022.56 1022.24 1021.84 1021.36 1020.82 1020.24 1019.63 1019.02 1018.41 1017.79 1017.15 1016.50 1015.82 1015.12 1014.41 1013.72 1013.08 1012.53 1012.08 1011.77 1011.60 1011.56 1011.64 1011.81 1012.03 1012.28 1012.54 1012.77 1012.97 1013.13 1013.27 1013.37 1013.45 1013.51 1013.56 1013.61 1013.66 1013.72 1013.79 1013.86
1023.48 1023.35 1023.17 1022.92 1022.59 1022.20 1021.73 1021.22 1020.67 1020.09 1019.50 1018.89 1018.26 1017.60 1016.90 1016.16 1015.39 1014.61 1013.84 1013.12 1012.48 1011.96 1011.57 1011.32 1011.21 1011.22 1011.33 1011.50 1011.72 1011.95 1012.19 1012.41 1012.60 1012.77 1012.92 1013.04 1013.15 1013.23 1013.31 1013.38 1013.46 1013.54 1013.63
1023.79 1023.67 1023.48 1023.22 1022.89 1022.49 1022.03 1021.53 1020.99 1020.43 1019.85 1019.24 1018.61 1017.93 1017.21 1016.43 1015.62 1014.79 1013.98 1013.21 1012.51 1011.93 1011.47 1011.14 1010.96 1010.89 1010.92 1011.02 1011.18 1011.38 1011.58 1011.80 1012.00 1012.19 1012.37 1012.53 1012.67 1012.80 1012.90 1013.01 1013.10 1013.21 1013.32
1024.03 1023.92 1023.74 1023.47 1023.13 1022.72 1022.26 1021.75 1021.21 1020.65 1020.07 1019.47 1018.83 1018.15 1017.42 1016.64 1015.82 1014.98 1014.14 1013.35 1012.63 1012.00 1011.49 1011.10 1010.83 1010.68 1010.62 1010.64 1010.72 1010.85 1011.01 1011.18 1011.37 1011.57 1011.76 1011.94 1012.11 1012.27 1012.41 1012.54 1012.67 1012.81 1012.95
1024.20 1024.11 1023.93 1023.66 1023.30 1022.87 1022.39 1021.86 1021.31 1020.75 1020.17 1019.57 1018.94 1018.27 1017.55 1016.79 1015.99 1015.16 1014.34 1013.56 1012.82 1012.17 1011.62 1011.18 1010.84 1010.60 1010.45 1010.38 1010.36 1010.41 1010.49 1010.61 1010.76 1010.93 1011.12 1011.31 1011.50 1011.68 1011.85 1012.02 1012.19 1012.35 1012.53
1024.28 1024.21 1024.03 1023.75 1023.37 1022.92 1022.41 1021.86 1021.29 1020.72 1020.14 1019.55 1018.94 1018.30 1017.62 1016.89 1016.13 1015.35 1014.56 1013.79 1013.07 1012.41 1011.83 1011.34 1010.93 1010.62 1010.38 1010.21 1010.10 1010.05 1010.05 1010.11 1010.20 1010.33 1010.49 1010.67 1010.86 1011.05 1011.25 1011.45 1011.65 1011.86 1012.07
1024.26 1024.20 1024.01 1023.72 1023.32 1022.84 1022.31 1021.74 1021.16 1020.59 1020.02 1019.45 1018.86 1018.26 1017.62 1016.95 1016.24 1015.50 1014.75 1014.01 1013.30 1012.64 1012.04 1011.50 1011.04 1010.66 1010.34 1010.09 1009.90 1009.77 1009.69 1009.67 1009.70 1009.78 1009.90 1010.05 1010.23 1010.43 1010.64 1010.86 1011.09 1011.33 1011.58
1024.14 1024.07 1023.88 1023.56 1023.15 1022.65 1022.10 1021.52 1020.94 1020.37 1019.82 1019.28 1018.73 1018.17 1017.58 1016.95 1016.29 1015.59 1014.88 1014.16 1013.45 1012.78 1012.16 1011.59 1011.09 1010.65 1010.28 1009.97 1009.71 1009.52 1009.38 1009.30 1009.27 1009.30 1009.37 1009.49 1009.65 1009.83 1010.04 1010.27 1010.52 1010.78 1011.05
1023.93 1023.85 1023.63 1023.30 1022.87 1022.36 1021.80 1021.23 1020.66 1020.11 1019.58 1019.07 1018.55 1018.03 1017.48 1016.89 1016.25 1015.58 1014.88 1014.16 1013.45 1012.76 1012.12 1011.52 1010.99 1010.52 1010.12 1009.78 1009.49 1009.26 1009.09 1008.97 1008.91 1008.90 1008.93 1009.01 1009.14 1009.30 1009.49 1009.71 1009.96 1010.22 1010.51
1023.66 1023.54 1023.31 1022.96 1022.52 1022.01 1021.46 1020.90 1020.35 1019.82 1019.32 1018.83 1018.35 1017.85 1017.31 1016.74 1016.11 1015.43 1014.72 1013.99 1013.25 1012.54 1011.87 1011.26 1010.71 1010.23 1009.82 1009.48 1009.20 1008.98 1008.81 1008.68 1008.61 1008.57 1008.58 1008.63 1008.72 1008.85 1009.01 1009.21 1009.44 1009.69 1009.97
1023.34 1023.20 1022.94 1022.58 1022.13 1021.64 1021.10 1020.57 1020.04 1019.54 1019.06 1018.59 1018.11 1017.62 1017.08 1016.49 1015.85 1015.15 1014.41 1013.64 1012.87 1012.13 1011.44 1010.81 1010.26 1009.79 1009.41 1009.09 1008.85 1008.66 1008.52 1008.42 1008.35 1008.32 1008.32 1008.34 1008.40 1008.50 1008.62 1008.78 1008.98 1009.20 1009.45
1023.01 1022.84 1022.56 1022.20 1021.76 1021.28 1020.77 1020.26 1019.75 1019.27 1018.80 1018.33 1017.85 1017.34 1016.78 1016.16 1015.48 1014.75 1013.97 1013.16 1012.36 1011.59 1010.88 1010.24 1009.70 1009.26 1008.90 1008.64 1008.45 1008.32 1008.23 1008.17 1008.14 1008.12 1008.12 1008.14 1008.17 1008.23 1008.31 1008.43 1008.57 1008.75 1008.96
1022.70 1022.50 1022.21 1021.85 1021.43 1020.96 1020.47 1019.98 1019.49 1019.01 1018.53 1018.05 1017.55 1017.01 1016.42 1015.77 1015.05 1014.28 1013.46 1012.63 1011.80 1011.02 1010.29 1009.66 1009.14 1008.72 1008.41 1008.20 1008.06 1007.99 1007.96 1007.95 1007.96 1007.96 1007.97 1007.97 1007.98 1008.00 1008.04 1008.11 1008.21 1008.33 1008.49
1022.42 1022.20 1021.91 1021.55 1021.14 1020.69 1020.21 1019.72 1019.24 1018.75 1018.25 1017.75 1017.22 1016.65 1016.03 1015.35 1014.61 1013.82 1012.99 1012.15 1011.32 1010.53 1009.82 1009.20 1008.69 1008.30 1008.02 1007.84 1007.75 1007.72 1007.73 1007.75 1007.78 1007.80 1007.80 1007.80 1007.78 1007.77 1007.76 1007.78 1007.82 1007.90 1008.01
1022.18 1021.95 1021.65 1021.30 1020.89 1020.45 1019.98 1019.48 1018.98 1018.46 1017.94 1017.41 1016.85 1016.26 1015.62 1014.94 1014.21 1013.44 1012.63 1011.82 1011.01 1010.25 1009.56 1008.95 1008.46 1008.08 1007.81 1007.64 1007.56 1007.53 1007.55 1007.58 1007.60 1007.61 1007.60 1007.56 1007.51 1007.46 1007.41 1007.38 1007.37 1007.40 1007.47
1022.00 1021.76 1021.45 1021.10 1020.69 1020.24 1019.75 1019.24 1018.70 1018.15 1017.59 1017.03 1016.45 1015.86 1015.24 1014.59 1013.90 1013.18 1012.44 1011.69 1010.95 1010.23 1009.57 1008.99 1008.50 1008.12 1007.83 1007.64 1007.52 1007.46 1007.44 1007.43 1007.42 1007.38 1007.33 1007.25 1007.15 1007.04 1006.94 1006.87 1006.82 1006.81 1006.85
1021.88 1021.62 1021.31 1020.95 1020.52 1020.05 1019.53 1018.98 1018.40 1017.81 1017.21 1016.62 1016.04 1015.46 1014.88 1014.30 1013.69 1013.07 1012.44 1011.78 1011.13 1010.49 1009.88 1009.32 1008.83 1008.42 1008.09 1007.84 1007.65 1007.52 1007.42 1007.33 1007.24 1007.13 1007.00 1006.86 1006.69 1006.53 1006.38 1006.25 1006.16 1006.12 1006.14
1021.81 1021.54 1021.22 1020.84 1020.39 1019.88 1019.32 1018.71 1018.08 1017.45 1016.82 1016.21 1015.64 1015.09 1014.58 1014.08 1013.59 1013.10 1012.59 1012.06 1011.52 1010.97 1010.42 1009.89 1009.40 1008.95 1008.56 1008.22 1007.94 1007.70 1007.49 1007.30 1007.10 1006.90 1006.68 1006.45 1006.22 1005.99 1005.77 1005.60 1005.47 1005.40 1005.40
1021.81 1021.52 1021.18 1020.77 1020.29 1019.74 1019.12 1018.46 1017.78 1017.09 1016.43 1015.82 1015.26 1014.76 1014.32 1013.93 1013.57 1013.21 1012.85 1012.46 1012.04 1011.59 1011.11 1010.61 1010.11 1009.63 1009.17 1008.75 1008.36 1008.01 1007.69 1007.38 1007.07 1006.77 1006.45 1006.13 1005.82 1005.52 1005.24 1005.01 1004.84 1004.74 1004.72
1021.85 1021.56 1021.20 1020.76 1020.24 1019.64 1018.97 1018.25 1017.51 1016.78 1016.09 1015.47 1014.93 1014.48 1014.12 1013.83 1013.59 1013.37 1013.15 1012.89 1012.59 1012.24 1011.83 1011.37 1010.88 1010.37 1009.87 1009.38 1008.90 1008.46 1008.03 1007.62 1007.22 1006.82 1006.42 1006.03 1005.64 1005.27 1004.93 1004.64 1004.42 1004.28 1004.23
1021.93 1021.63 1021.25 1020.79 1020.24 1019.59 1018.88 1018.11 1017.32 1016.55 1015.83 1015.20 1014.67 1014.26 1013.96 1013.76 1013.62 1013.52 1013.41 1013.28 1013.09 1012.83 1012.49 1012.08 1011.61 1011.11 1010.59 1010.06 1009.54 1009.04 1008.55 1008.08 1007.62 1007.16 1006.70 1006.24 1005.79 1005.36 1004.97 1004.63 1004.36 1004.17 1004.07
Thickness
5727 5725 5722 5720 5718 5716 5714 5711 5709 5707 5704 5701 5699 5697 5696 5694 5693 5692 5691 5689 5689 5688 5687 5687 5686 5685 5684 5683 5684 5683 5682 5682 5684 5684 5684 5685 5686 5686 5685 5685 5686 5686 5686
5724 5722 5720 5718 5716 5714 5712 5709 5707 5705 5702 5699 5698 5695 5692 5691 5689 5687 5686 5685 5684 5683 5683 5682 5681 5680 5678 5678 5678 5677 5677 5677 5677 5678 5678 5678 5679 5679 5680 5680 5680 5682 5681
5723 5721 5719 5716 5714 5712 5710 5707 5705 5702 5699 5696 5694 5691 5688 5686 5685 5683 5681 5680 5679 5679 5678 5678 5677 5676 5675 5674 5672 5672 5671 5671 5672 5673 5672 5671 5670 5672 5675 5675 5676 5676 5676
5722 5720 5718 5715 5713 5711 5709 5707 5703 5700 5696 5693 5690 5688 5685 5683 5681 5680 5678 5677 5675 5674 5673 5673 5672 5672 5671 5669 5669 5668 5667 5665 5666 5666 5666 5667 5666 5665 5666 5669 5671 5670 5670
5722 5719 5716 5714 5712 5710 5706 5704 5701 5697 5694 5691 5688 5685 5683 5681 5679 5676 5675 5674 5672 5670 5669 5668 5668 5667 5666 5665 5664 5663 5662 5662 5661 5661 5661 5660 5659 5662 5661 5659 5662 5664 5665
5720 5717 5715 5712 5709 5707 5703 5700 5697 5694 5691 5688 5685 5683 5680 5677 5674 5672 5671 5670 5669 5667 5665 5664 5663 5662 5661 5660 5659 5658 5657 5657 5656 5656 5656 5655 5654 5654 5654 5654 5655 5656 5658
5718 5715 5711 5709 5706 5702 5700 5697 5694 5691 5688 5685 5683 5680 5678 5675 5673 5671 5668 5666 5665 5663 5661 5660 5659 5658 5656 5655 5654 5653 5652 5652 5650 5650 5651 5650 5650 5650 5650 5650 5651 5650 5651
5714 5712 5710 5707 5704 5700 5697 5695 5692 5689 5686 5683 5681 5678 5675 5672 5670 5667 5666 5663 5661 5659 5658 5655 5654 5652 5650 5649 5648 5648 5647 5647 5646 5645 5645 5644 5645 5644 5644 5644 5643 5643 5644
5709 5707 5706 5704 5702 5698 5695 5692 5689 5687 5683 5681 5678 5675 5672 5669 5666 5664 5662 5660 5657 5655 5653 5651 5650 5647 5645 5644 5643 5642 5642 5641 5640 5640 5639 5639 5639 5638 5638 5638 5638 5636 5636
5704 5703 5701 5699 5698 5696 5693 5690 5687 5684 5680 5677 5675 5671 5669 5666 5663 5660 5657 5655 5653 5650 5648 5646 5645 5642 5641 5639 5637 5636 5636 5635 5633 5632 5633 5632 5633 5633 5632 5631 5631 5631 5630
5699 5698 5696 5695 5693 5691 5689 5686 5683 5680 5677 5674 5672 5668 5665 5662 5659 5656 5653 5650 5648 5646 5643 5641 5640 5638 5636 5635 5632 5631 5630 5629 5629 5628 5627 5627 5626 5626 5626 5625 5625 5624 5624
5694 5693 5691 5689 5687 5685 5683 5681 5679 5677 5673 5671 5668 5665 5661 5657 5654 5651 5649 5646 5643 5641 5639 5637 5635 5633 5631 5630 5628 5626 5624 5623 5623 5622 5621 5621 5620 5619 5619 5618 5618 5618 5618
5688 5687 5684 5683 5681 5679 5678 5676 5674 5672 5669 5666 5663 5660 5657 5653 5650 5647 5644 5641 5638 5636 5633 5631 5629 5628 5626 5624 5623 5621 5620 5619 5618 5617 5616 5615 5614 5613 5612 5612 5613 5613 5613
5682 5681 5679 5678 5676 5674 5673 5671 5669 5667 5664 5661 5658 5655 5652 5649 5646 5642 5638 5635 5633 5630 5628 5626 5624 5622 5620 5619 5617 5615 5614 5613 5612 5611 5610 5609 5608 5607 5606 5606 5606 5606 5606
5676 5675 5673 5673 5671 5669 5668 5666 5664 5662 5659 5656 5653 5650 5647 5644 5640 5637 5633 5630 5626 5624 5621 5620 5618 5616 5614 5613 5611 5610 5608 5607 5605 5604 5603 5602 5601 5601 5600 5600 5600 5600 5600
5671 5670 5669 5667 5666 5665 5663 5661 5658 5657 5654 5651 5648 5645 5641 5637 5634 5631 5627 5623 5620 5617 5614 5613 5612 5610 5608 5606 5603 5602 5602 5601 5600 5599 5598 5597 5596 5594 5593 5593 5593 5593 5594
5666 5665 5664 5663 5661 5661 5659 5655 5653 5650 5648 5646 5642 5638 5635 5631 5628 5624 5620 5617 5614 5611 5608 5607 5606 5605 5603 5599 5597 5594 5595 5595 5595 5594 5593 5593 5592 5590 5590 5589 5587 5587 5587
5660 5659 5658 5656 5655 5654 5652 5650 5646 5644 5642 5639 5636 5632 5628 5625 5621 5618 5615 5612 5609 5606 5603 5602 5600 5598 5596 5593 5591 5589 5589 5590 5590 5589 5588 5588 5588 5586 5586 5586 5585 5585 5585
5655 5654 5653 5651 5649 5647 5645 5643 5640 5638 5636 5633 5630 5626 5623 5619 5615 5612 5609 5606 5603 5600 5598 5596 5594 5592 5591 5587 5586 5584 5585 5585 5585 5584 5583 5583 5582 5580 5577 5579 5580 5581 5581
5648 5647 5646 5645 5642 5640 5638 5636 5634 5632 5629 5626 5623 5620 5617 5613 5610 5607 5604 5600 5597 5594 5592 5590 5589 5588 5586 5583 5580 5578 5580 5581 5580 5579 5578 5575 5575 5573 5570 5572 5574 5574 5575
5640 5639 5638 5636 5634 5632 5630 5629 5628 5626 5623 5619 5616 5613 5610 5606 5603 5600 5596 5593 5591 5588 5586 5584 5583 5583 5581 5577 5574 5572 5574 5574 5575 5574 5573 5571 5567 5566 5564 5564 5566 5566 5566
5631 5630 5629 5628 5626 5624 5623 5622 5620 5618 5614 5611 5608 5605 5602 5599 5596 5592 5589 5586 5583 5581 5580 5578 5577 5576 5575 5572 5569 5567 5565 5566 5567 5567 5567 5565 5561 5559 5557 5556 5556 5556 5555
5624 5622 5621 5619 5618 5616 5615 5614 5612 5608 5605 5602 5600 5597 5595 5591 5588 5585 5582 5579 5577 5575 5573 5571 5570 5569 5568 5566 5562 5560 5558 5558 5559 5560 5558 5556 5553 5551 5550 5548 5547 5547 5549
5616 5615 5613 5612 5610 5608 5606 5605 5603 5600 5597 5595 5592 5589 5587 5584 5580 5577 5575 5572 5570 5568 5566 5564 5563 5562 5560 5558 5556 5554 5553 5550 5550 5551 5549 5547 5545 5543 5541 5541 5541 5541 5541
5608 5607 5605 5603 5601 5598 5596 5596 5593 5592 5590 5587 5584 5581 5578 5576 5573 5570 5566 5565 5563 5560 5558 5558 5556 5554 5552 5550 5547 5545 5545 5544 5542 5542 5542 5541 5540 5538 5536 5535 5534 5533 5533
5601 5599 5596 5594 5592 5590 5588 5586 5584 5583 5581 5579 5576 5573 5571 5568 5565 5562 5559 5553 5552 5549 5547 5546 5545 5544 5542 5539 5537 5535 5534 5533 5532 5532 5532 5531 5531 5529 5528 5527 5526 5525 5524